Location: Alma
(38.7220°N, 88.9090°W)
Time: 15:42:25
(UTC-06:00)

Vanguard 2 Rocket - Pass Details

Date: 23 November 2019
Orbit: 554 x 3326 km, 32.9° (Epoch: 14 December)

Event Time Altitude Azimuth Distance (km) Brightness Sun altitude
Rises 05:37:05 0° 261° (W) 3,487 - -13.5°
Exits shadow 05:39:30 - 247° (WSW) 2,969 9.1 -13.0°
Reaches altitude 10° 05:40:08 10° 242° (WSW) 2,873 9.0 -12.9°
Maximum altitude 05:44:46 18° 201° (SSW) 2,810 9.4 -12.0°
Drops below altitude 10° 05:51:05 10° 163° (SSE) 4,113 10.7 -10.9°
Sets 05:56:50 0° 148° (SSE) 5,714 11.8 -9.8°
